Wind_Speed
32 32 27 20 21 25 27 26 25 25 26 29 30 28 28 29 29 27 26 26 24 21 21 23 26 28 27 27 28 28 28 29 29 29 28 27 27 27 28 28 29 30 30 29 30 31 32 32 32 32 34 34 35 35 35 37 40 41 43 44 43 42 41 41 40 40 41 43 44 45 45 46 46 46 46 46 46 46 47 48 48 49 50 51 51 51 50
29 29 25 24 30 33 30 26 25 24 25 28 28 27 27 28 31 31 30 29 25 21 22 26 28 28 28 28 29 30 31 31 30 29 29 28 28 29 29 30 30 31 31 31 31 32 33 33 33 34 35 34 34 34 35 37 41 43 43 43 43 42 41 40 40 41 43 44 45 46 46 46 47 46 46 45 46 46 47 48 49 49 50 50 51 50 49
30 26 23 31 41 40 30 26 26 27 27 27 27 28 28 29 33 34 30 28 28 25 26 30 30 26 28 30 30 30 31 31 30 30 29 29 30 30 31 31 31 32 33 33 33 33 34 34 34 35 35 34 34 35 38 40 42 42 43 42 42 41 40 40 41 42 43 45 45 46 47 47 47 46 46 46 46 46 47 48 49 49 49 50 50 49 48
36 29 30 39 44 37 32 31 31 31 30 28 30 32 29 30 35 35 31 29 31 30 30 32 30 27 28 31 30 30 31 30 28 29 30 30 31 31 32 32 32 33 34 34 33 34 35 35 35 36 35 35 35 37 40 42 41 41 42 42 42 41 41 41 41 42 44 45 46 46 47 48 47 47 47 47 46 47 47 48 48 48 49 49 48 47 46
37 32 35 40 37 32 34 36 33 31 30 32 35 34 31 34 37 34 31 30 32 34 33 32 31 31 32 32 31 30 30 28 28 28 30 30 31 32 32 32 32 33 33 34 33 34 35 35 35 36 35 36 37 38 40 41 41 41 42 42 41 41 41 41 42 43 44 45 46 47 48 48 48 48 48 47 46 47 47 47 48 48 48 48 47 46 44
37 33 33 34 33 35 36 33 32 32 34 38 39 34 33 38 37 31 30 32 34 37 36 34 35 36 35 34 33 31 29 28 28 28 29 30 31 31 31 32 32 32 33 33 33 33 33 33 34 35 35 36 37 39 40 40 40 41 42 41 42 42 41 41 42 44 45 46 47 48 48 48 48 48 47 46 46 47 47 47 47 47 48 47 46 44 42
37 34 33 33 35 37 36 34 35 35 34 37 39 36 36 39 37 31 30 31 35 36 36 37 39 38 36 35 34 31 29 28 28 28 28 29 29 30 30 31 31 31 32 32 32 32 32 33 34 35 35 36 38 39 39 39 39 41 42 42 43 42 41 42 43 45 47 47 48 48 48 47 47 47 46 45 46 46 47 47 47 47 47 46 44 41 39
35 33 34 36 37 36 37 37 38 36 33 33 35 36 36 38 36 33 30 31 35 36 36 38 40 38 36 35 33 30 29 29 28 27 27 27 28 28 28 29 29 29 30 30 30 30 31 32 33 34 35 37 38 38 38 38 39 41 42 43 43 43 42 43 45 46 48 48 48 47 47 47 46 45 44 44 45 46 46 46 46 46 45 43 42 39 37
37 35 34 36 39 38 38 38 38 37 34 34 37 36 35 36 35 32 32 35 37 37 37 39 40 38 35 33 32 31 30 29 28 28 27 27 27 27 27 27 28 28 28 29 29 30 31 32 33 34 35 37 37 37 37 38 40 42 43 43 43 43 43 44 46 47 49 49 48 47 46 46 45 43 43 44 44 45 45 45 45 45 43 41 40 37 35
40 39 35 36 38 38 38 38 38 37 36 39 40 38 36 38 38 36 36 40 41 39 38 39 39 37 34 32 32 33 30 29 29 28 28 27 27 27 27 27 28 28 29 29 30 31 32 33 34 35 35 36 36 37 38 39 41 41 42 44 44 44 45 45 46 48 49 49 48 47 45 45 44 43 43 43 43 44 44 44 44 42 40 39 38 35 34
40 39 38 39 38 37 37 37 33 32 36 39 38 36 36 38 38 38 40 43 43 40 38 37 37 35 33 32 33 33 30 29 29 29 28 29 28 28 28 29 29 30 30 30 31 31 32 34 34 35 35 36 37 38 39 40 41 42 43 44 45 46 46 46 46 47 48 49 48 47 45 44 44 43 42 42 43 43 42 43 42 39 38 37 36 33 33
39 40 42 42 38 36 38 36 30 32 37 37 34 33 35 35 36 37 39 39 38 37 36 35 34 34 33 32 34 34 32 32 32 31 31 31 30 30 31 31 31 31 31 32 32 33 34 34 35 35 36 37 38 38 39 40 41 43 45 45 46 46 46 46 46 46 47 48 49 47 45 44 44 43 42 42 42 41 41 42 41 39 38 37 34 32 31
42 42 44 43 38 38 42 40 37 39 43 40 36 35 36 35 35 37 37 34 33 35 36 34 32 33 34 33 34 36 35 34 34 33 33 32 32 32 33 33 33 33 34 34 34 35 36 36 36 36 37 38 39 40 41 42 42 44 45 46 45 46 46 46 46 46 47 48 49 47 45 43 43 43 42 42 41 41 41 40 40 39 37 35 33 31 30
44 43 44 43 40 41 43 43 42 44 44 41 39 39 38 37 36 37 37 35 33 34 35 34 33 34 35 35 35 36 35 34 33 34 34 34 34 34 34 35 35 35 35 36 37 37 37 37 37 38 39 40 41 42 43 43 44 44 45 45 45 45 46 47 47 47 47 48 48 47 45 43 42 42 42 41 41 41 39 38 38 39 37 34 32 30 30
44 42 41 42 43 42 41 42 44 44 43 41 40 39 38 38 37 36 37 36 34 33 34 36 36 35 35 36 36 35 35 34 34 34 34 34 34 35 35 35 35 36 37 38 38 38 38 38 39 39 40 41 42 43 43 43 44 44 44 44 45 46 46 46 46 46 47 47 48 47 44 42 42 41 41 41 40 40 38 37 38 38 37 34 31 30 30
43 42 39 41 45 45 43 42 42 41 40 39 38 37 38 38 38 36 36 37 36 35 35 36 37 36 36 36 36 36 36 36 34 34 35 35 35 36 34 32 33 36 38 39 39 39 39 39 40 40 41 42 42 42 43 43 43 43 44 44 45 46 46 45 45 44 45 46 46 45 44 42 41 40 40 40 40 39 38 36 36 38 38 34 31 30 30
43 43 39 38 41 43 43 41 40 40 39 38 38 39 39 39 39 38 38 38 38 38 38 37 38 38 36 36 36 37 37 36 34 34 35 35 36 37 36 33 34 38 39 39 39 39 40 40 40 40 41 41 42 42 42 42 42 43 44 45 45 46 46 45 43 44 45 46 45 44 43 42 40 39 40 40 39 40 37 34 36 40 39 36 32 31 31
42 44 42 39 39 39 40 40 41 42 42 41 39 38 38 38 39 39 39 39 39 40 39 39 39 39 38 37 38 38 37 36 36 36 36 36 36 37 36 36 37 39 39 39 40 40 41 40 39 40 40 41 42 43 43 43 43 44 45 46 45 46 46 45 44 45 46 45 43 43 43 41 38 38 39 39 39 39 35 34 37 39 38 35 33 32 32
41 42 41 41 41 40 40 41 41 41 41 40 39 39 38 39 40 40 40 41 41 41 40 40 40 40 39 39 39 39 39 39 38 36 36 37 37 37 37 37 38 39 39 40 41 41 41 39 38 40 41 42 44 45 45 44 46 46 46 46 46 46 46 46 46 46 44 43 42 43 42 39 37 38 39 38 39 37 33 33 37 39 37 35 33 31 31
42 41 41 42 41 41 42 43 43 43 42 42 42 42 42 42 43 42 42 42 41 41 41 41 40 40 40 39 39 39 38 37 37 36 37 37 37 37 37 37 38 39 39 39 40 40 40 39 40 42 44 46 47 47 46 46 48 49 48 47 47 47 47 46 46 45 44 43 43 42 41 39 38 39 39 38 39 37 34 34 37 39 39 36 32 31 31
43 42 42 42 41 42 44 45 44 43 43 43 44 44 44 45 44 43 43 42 42 42 42 42 42 42 41 40 40 39 36 36 38 38 37 36 36 37 37 39 39 39 39 39 40 40 39 40 43 46 47 49 49 48 48 49 50 50 50 48 47 47 48 47 46 45 45 44 42 41 40 40 39 40 40 39 38 37 35 36 37 38 38 35 32 31 31
43 44 44 42 41 43 45 44 43 42 42 44 45 45 45 46 45 44 44 43 43 42 42 43 43 41 40 39 37 37 38 38 39 39 36 35 36 37 39 41 40 40 41 41 41 41 42 45 48 49 50 50 49 49 52 52 52 51 51 50 48 47 47 46 46 46 45 43 41 41 41 40 39 41 41 40 37 36 35 36 36 36 36 34 31 31 31
44 44 44 43 42 43 44 44 44 44 44 45 46 46 46 46 45 45 44 44 44 43 42 43 41 38 37 36 33 36 41 40 37 35 36 36 37 39 41 42 42 42 43 43 42 44 47 50 51 50 50 50 51 53 54 54 53 52 51 50 49 47 47 46 45 45 43 41 41 42 41 40 40 40 40 40 38 36 35 36 35 35 35 34 31 31 32
45 44 45 45 45 44 44 45 47 47 45 45 46 46 46 46 46 45 45 45 45 42 42 43 42 38 36 34 32 37 41 38 34 35 37 38 39 41 43 43 44 45 45 44 44 47 50 51 51 51 52 53 54 55 55 53 52 52 51 50 49 47 46 45 45 44 43 41 41 42 42 40 39 39 40 41 39 37 36 35 35 35 36 34 32 31 32
46 45 45 46 47 47 47 46 47 48 48 46 46 47 47 47 47 46 45 45 44 42 40 40 40 40 39 36 35 37 38 37 37 39 40 41 42 44 44 44 45 46 46 47 48 50 51 51 52 54 55 55 55 54 54 53 52 52 51 50 49 47 46 45 45 44 44 42 41 41 41 40 38 38 39 40 39 37 37 36 35 35 36 36 34 32 33
48 47 47 48 49 49 48 48 48 49 48 46 46 47 48 47 46 45 45 44 43 42 41 39 39 40 40 38 37 38 38 38 40 42 43 44 45 45 45 46 47 49 50 51 51 51 51 52 54 55 55 55 54 54 54 53 52 51 49 48 48 47 46 45 44 44 43 41 40 40 39 39 38 37 38 39 38 37 37 37 36 35 36 36 34 33 33
49 49 49 50 50 50 50 49 49 49 47 46 46 47 46 46 45 44 44 44 41 39 38 39 40 40 39 37 38 40 40 40 43 44 44 45 46 46 47 48 49 50 51 50 51 52 52 53 55 55 55 55 55 54 53 51 50 49 48 47 46 45 44 44 43 42 42 41 40 39 39 38 37 36 37 38 39 37 36 36 36 35 34 33 32 31 30
48 49 49 50 50 50 49 49 48 47 46 46 46 46 45 45 45 44 44 44 42 38 36 38 40 40 39 39 41 42 42 44 46 47 47 47 47 47 48 49 49 50 50 50 51 53 53 54 55 55 55 55 54 53 51 50 48 48 47 46 45 44 43 43 42 41 41 41 40 39 38 37 36 35 35 37 38 38 37 36 35 33 31 30 30 30 29
47 48 48 49 49 48 48 47 47 46 46 46 46 46 45 45 44 44 44 44 44 42 39 38 39 40 41 42 42 43 44 45 46 46 46 46 46 46 47 49 49 50 51 53 53 53 54 55 55 55 54 53 51 50 49 48 47 46 45 44 43 43 42 42 41 40 40 40 39 38 37 36 35 35 35 35 36 37 37 35 33 31 30 30 30 29 29
46 46 46 46 46 46 46 46 45 45 45 45 44 45 45 44 44 43 43 43 43 42 40 38 38 40 42 43 43 43 45 46 46 45 44 45 46 48 49 50 52 53 54 54 54 54 55 54 54 53 51 49 47 46 45 44 43 43 42 42 42 42 42 41 40 38 38 39 39 37 35 35 35 35 35 35 35 35 35 33 31 30 29 29 28 28 28
41 42 42 43 44 44 44 44 43 43 43 43 43 42 43 43 43 42 42 42 41 42 42 41 40 41 43 44 44 45 46 47 47 46 45 46 48 49 49 51 54 55 54 54 54 54 53 52 51 50 47 45 43 42 41 42 43 43 43 42 41 40 40 40 38 37 35 36 38 37 37 36 36 35 35 35 34 33 32 30 30 30 29 28 27 27 27
39 40 41 41 41 42 42 42 41 41 40 41 41 41 41 42 42 42 42 42 41 41 42 42 42 42 42 43 44 46 46 47 47 47 47 48 49 49 49 51 53 53 53 52 52 52 51 50 49 47 44 42 41 40 41 43 43 43 42 41 39 39 39 38 37 35 34 34 36 37 37 36 35 35 35 34 33 31 29 29 28 28 26 25 25 25 24
39 39 39 40 40 41 41 41 41 41 40 40 41 41 41 42 42 42 42 43 42 42 42 42 42 42 41 41 43 45 46 47 47 46 46 46 47 48 48 49 50 51 52 52 52 52 50 47 45 44 42 40 39 40 42 42 41 40 39 38 37 37 38 37 35 34 34 34 35 36 36 35 34 34 33 32 30 29 28 28 28 27 25 26 27 26 24
39 39 40 40 41 41 42 42 42 42 42 41 41 42 42 42 42 42 42 42 42 42 42 41 41 41 41 41 41 42 45 47 46 45 44 45 46 47 48 49 50 51 51 51 52 50 46 43 42 42 40 38 39 41 41 39 37 37 36 36 36 36 36 36 35 34 34 34 35 35 35 35 34 32 31 29 28 28 28 28 29 29 28 28 28 27 25
40 40 41 41 42 42 43 43 43 43 42 42 42 42 43 43 42 42 42 42 42 41 41 40 39 39 40 41 41 42 45 46 45 44 44 46 48 49 50 51 51 51 51 51 49 45 40 39 40 40 38 38 39 40 39 38 37 37 36 36 36 36 36 35 34 34 33 34 33 32 32 31 31 30 29 28 28 29 29 28 28 28 28 27 26 26 25
41 41 42 42 43 43 43 44 44 44 44 43 43 43 43 43 43 43 42 42 41 41 40 40 40 40 40 42 43 44 46 46 45 44 46 48 49 50 51 52 52 51 50 47 43 40 38 39 39 38 38 39 39 39 39 39 39 39 38 38 37 36 35 35 34 33 32 31 30 29 29 28 29 29 29 28 28 27 26 25 24 25 25 25 25 26 28
42 43 44 44 44 44 44 45 45 45 45 44 44 44 44 43 43 43 43 42 42 41 41 41 41 42 42 43 44 45 46 47 47 47 49 49 50 50 51 51 50 48 45 42 39 38 39 38 37 38 39 39 38 38 39 40 41 40 39 38 37 36 35 33 32 31 30 29 28 28 28 27 27 28 27 26 25 24 24 25 25 26 26 27 27 29 30
43 44 45 45 46 46 46 45 45 46 46 46 45 45 44 44 44 43 44 44 42 41 41 42 42 43 44 45 45 46 47 48 48 48 48 48 48 48 48 47 46 44 42 40 37 36 36 36 37 38 39 38 38 39 40 40 39 38 36 36 35 35 34 33 31 30 29 28 28 28 28 27 27 26 25 23 23 24 26 27 28 28 28 28 28 27 27
44 45 46 47 47 48 48 48 47 47 47 46 46 45 44 44 44 43 44 44 42 41 41 42 43 44 45 46 46 46 47 47 46 45 44 44 44 44 44 43 41 40 40 39 37 35 36 37 38 39 38 38 39 39 39 38 37 36 35 34 34 33 32 32 31 30 29 29 29 29 29 28 28 27 26 26 26 27 27 27 28 28 27 27 26 25 24
43 44 45 47 48 48 48 49 49 49 48 47 46 45 44 43 43 42 42 42 41 40 41 42 43 44 44 45 45 44 44 43 41 40 39 38 38 39 40 39 37 37 37 38 37 36 37 38 39 39 38 39 38 37 37 36 36 35 35 34 34 33 32 31 31 30 30 29 29 29 29 28 28 28 28 28 27 27 27 26 27 27 26 26 26 25 25
42 44 46 48 50 51 51 51 50 49 48 47 45 44 43 43 43 42 42 41 41 41 41 42 42 42 42 42 42 41 40 39 38 36 34 34 34 35 34 33 32 33 35 36 36 37 38 39 39 38 38 37 37 36 36 36 35 35 34 34 33 32 31 31 30 30 29 29 29 28 28 27 27 27 27 27 27 27 27 26 26 27 26 26 26 27 27
35 38 41 44 46 48 51 52 52 50 48 45 43 42 42 42 42 42 41 41 41 41 40 40 39 39 40 40 39 37 36 36 34 33 31 31 30 30 30 29 30 32 33 34 36 37 38 38 38 37 36 36 35 35 35 35 34 34 34 33 33 32 31 30 30 29 28 28 28 27 27 26 26 26 26 26 27 26 26 27 27 27 28 28 28 28 28
35 37 39 39 38 38 39 43 47 49 47 42 39 39 40 40 39 39 40 39 39 38 38 38 38 39 39 39 37 34 32 31 29 27 26 25 26 27 28 28 30 32 34 35 36 37 36 35 35 36 35 34 34 34 34 34 34 34 33 33 32 32 31 30 29 28 27 27 26 26 26 26 26 26 25 26 26 26 27 27 28 28 29 29 30 30 31
37 38 38 36 34 32 30 31 35 39 40 38 37 37 37 36 36 36 36 36 36 36 37 37 36 35 34 33 30 28 27 27 25 24 24 24 26 27 28 29 31 33 34 34 35 35 33 32 33 34 34 33 33 33 33 34 34 33 33 33 32 31 30 29 28 27 26 26 25 26 26 26 26 26 26 26 27 27 28 28 29 30 30 31 31 32 32
33 33 31 28 28 29 28 29 29 30 32 32 33 33 34 33 33 33 33 34 34 35 35 34 33 31 29 27 25 24 23 23 23 24 25 26 27 28 28 30 31 31 32 33 33 32 31 31 32 33 33 33 33 33 33 33 33 33 32 32 31 30 29 27 26 25 25 25 26 26 26 27 27 27 27 27 28 29 29 30 31 31 32 32 33 33 32
27 26 23 20 22 24 25 26 26 26 27 28 29 30 30 30 30 30 31 32 32 32 31 30 29 27 25 23 22 22 22 22 22 23 25 26 26 27 28 29 29 30 31 31 31 31 30 31 32 32 32 32 32 31 31 30 30 30 29 29 29 28 27 25 24 24 25 26 26 26 27 27 27 27 28 29 29 30 31 31 32 32 32 32 31 30 29
15 15 14 13 14 16 17 18 20 23 24 25 26 26 26 27 27 28 28 28 27 25 23 21 20 19 19 19 19 20 21 22 22 23 25 26 26 26 27 28 28 29 30 30 30 29 30 30 30 30 29 29 28 28 27 26 26 26 26 27 27 27 26 25 25 25 26 26 26 26 27 27 28 28 29 29 30 30 31 31 30 30 29 28 26 26 25
5 6 6 5 6 7 8 11 13 16 18 20 21 21 22 23 23 23 22 21 19 17 15 14 15 16 17 18 19 20 21 22 22 23 24 25 26 26 26 27 27 28 28 28 28 27 28 28 28 28 28 27 27 26 25 24 25 26 27 28 28 28 27 26 26 26 26 26 26 27 27 28 28 29 29 30 30 30 29 27 26 25 24 24 23 23 23
5 5 5 5 6 7 7 8 10 12 14 16 17 18 18 18 16 15 14 13 13 14 14 15 15 16 17 17 18 19 20 21 22 23 24 24 24 24 24 25 25 25 26 26 26 26 27 28 28 28 28 29 28 27 26 26 27 28 29 30 30 30 28 27 26 26 26 26 27 28 28 28 28 29 29 29 28 26 24 23 22 22 22 22 22 21 21
9 7 6 6 7 7 6 6 7 8 9 10 9 10 11 11 11 11 12 12 13 14 15 15 15 16 17 18 19 20 21 21 22 22 23 23 23 23 23 23 24 25 27 28 28 28 28 30 30 30 30 31 31 30 29 28 28 29 30 31 31 30 28 27 27 27 27 27 28 28 28 28 28 28 28 26 24 22 21 20 20 20 20 20 19 19 19
8 6 5 4 4 3 3 3 3 3 4 5 5 6 7 8 10 11 12 12 13 14 15 15 16 17 18 19 19 19 20 20 21 22 23 24 24 24 25 25 26 27 29 31 31 30 30 30 31 31 31 32 32 32 31 30 29 29 30 31 31 30 29 28 28 28 28 28 28 28 28 28 27 27 25 23 21 20 19 19 19 18 18 18 17 17 17
6 6 6 5 4 3 2 3 3 4 5 6 7 8 8 9 9 10 11 12 13 14 14 14 15 16 17 18 19 19 20 21 23 24 25 25 26 27 27 27 28 29 30 31 32 32 31 31 31 31 31 32 33 33 33 32 31 31 31 32 32 32 30 30 30 30 29 29 29 28 27 27 26 24 22 20 19 19 19 18 18 18 18 18 17 17 17
Wind_Direction
225 226 223 229 242 240 236 237 236 232 230 230 232 234 236 243 246 245 249 251 245 244 251 255 261 270 274 278 281 285 289 289 286 285 285 283 282 282 282 283 282 282 282 283 283 284 286 287 289 289 289 290 290 291 292 293 295 296 299 301 303 305 306 306 307 308 309 311 313 315 317 318 317 316 315 314 315 316 317 318 320 321 321 320 319 318 318
240 234 223 220 227 225 223 227 231 233 236 237 239 239 238 242 249 252 253 254 253 254 259 261 266 275 281 282 285 289 291 291 288 286 286 286 285 284 283 282 283 284 285 286 287 287 288 289 289 288 289 291 292 292 292 291 292 295 298 299 302 304 306 307 308 308 309 311 314 315 316 316 315 315 314 315 316 317 318 319 320 321 320 319 318 319 319
236 231 226 232 231 225 223 227 230 231 233 236 240 241 240 243 247 250 253 257 260 261 262 266 270 275 280 282 285 287 288 287 287 286 285 286 285 283 283 283 283 285 286 287 288 287 288 288 288 288 290 292 291 290 290 290 292 295 298 299 302 304 306 307 308 307 309 312 314 314 314 314 314 315 316 316 316 317 318 320 320 320 319 318 319 319 319
229 222 220 231 235 233 233 232 230 231 233 236 239 237 237 242 245 246 252 262 267 266 265 268 272 274 277 279 282 285 285 283 282 282 282 282 281 281 282 282 283 283 284 285 286 286 287 287 288 290 292 291 290 290 290 292 295 297 298 300 303 305 306 307 306 307 309 312 313 313 313 313 314 315 316 316 316 317 318 320 320 319 318 319 319 319 319
234 229 230 236 237 235 235 233 231 232 232 233 236 236 235 239 244 248 255 261 265 267 268 271 275 279 280 282 284 285 285 283 281 280 279 278 277 277 278 279 279 280 282 283 284 285 286 287 288 289 290 291 291 291 291 293 296 297 299 301 303 304 305 305 306 307 310 312 313 313 313 314 315 315 315 315 316 317 318 319 319 318 318 319 319 319 319
237 235 240 243 238 232 233 233 232 231 229 229 232 234 238 243 248 253 257 262 264 266 270 274 279 281 283 285 287 287 286 285 283 281 279 278 277 276 276 277 278 279 281 282 284 285 286 287 286 287 289 289 289 290 291 294 296 297 299 301 302 303 304 305 307 309 311 312 313 313 313 313 314 314 314 314 316 317 317 317 317 317 318 319 320 320 319
237 235 240 243 240 237 235 234 235 236 237 238 239 239 243 250 258 260 257 260 264 267 272 277 279 281 283 286 289 289 289 287 284 281 280 279 279 278 278 278 279 280 281 282 284 285 285 285 285 286 287 287 287 289 292 295 296 297 299 300 301 302 305 307 309 310 311 311 312 312 312 312 313 313 313 314 315 316 316 316 316 317 318 319 320 321 319
238 233 235 240 242 242 240 238 240 242 243 246 249 249 251 255 261 261 259 260 264 269 274 277 278 280 283 287 290 291 290 288 284 282 281 281 281 281 280 280 280 280 281 282 283 284 283 283 284 284 284 285 287 290 293 295 296 297 298 299 301 303 307 309 309 309 309 309 310 311 311 311 311 312 312 313 314 314 314 315 316 317 318 319 321 321 318
237 232 232 239 243 245 246 245 245 246 247 249 251 253 257 259 260 262 265 266 267 269 272 274 277 281 285 289 291 290 289 288 286 284 282 282 282 281 281 280 280 280 281 281 282 283 283 283 283 283 284 286 289 291 293 294 295 296 297 299 301 304 307 308 308 307 307 308 309 310 310 310 310 311 312 312 313 313 313 315 316 317 318 320 321 320 317
238 237 236 241 246 249 252 252 251 249 248 249 252 254 258 262 264 266 267 267 267 268 271 274 278 283 288 291 290 289 288 287 285 285 285 283 282 281 281 281 281 281 282 282 283 284 284 284 284 285 287 289 290 291 293 293 295 296 298 299 302 304 306 306 306 306 306 307 308 309 309 309 310 310 311 311 311 312 313 315 316 317 318 319 320 318 316
242 244 242 243 247 251 255 258 257 253 249 250 254 259 260 262 265 265 263 264 267 269 272 277 281 285 288 289 287 288 289 287 286 287 286 286 285 285 284 285 285 285 285 286 286 286 286 286 288 289 290 290 291 291 292 294 296 297 298 299 302 303 303 303 304 305 305 306 307 308 309 309 310 310 310 310 310 312 313 314 315 316 316 318 318 315 313
240 244 246 247 248 250 252 253 251 253 254 256 259 262 262 260 259 258 259 264 269 272 275 278 281 283 284 283 283 285 286 286 287 288 287 288 288 288 289 290 289 289 289 288 288 288 289 289 290 291 291 291 292 293 293 294 296 297 298 299 301 301 301 302 303 304 305 306 307 308 309 309 310 310 309 309 310 311 312 313 314 314 316 317 316 312 310
241 244 248 250 250 250 251 251 250 254 259 262 262 260 258 256 255 257 261 266 272 276 278 279 279 280 281 281 282 283 284 285 286 287 287 288 289 290 290 291 290 290 290 290 290 290 290 291 291 291 291 292 292 293 294 294 295 296 297 298 299 299 300 302 304 304 304 305 306 307 309 309 309 309 309 309 310 310 311 312 313 314 315 316 314 310 308
244 244 246 248 249 250 252 254 254 255 258 260 259 258 257 257 259 262 265 268 271 274 278 280 280 280 280 281 281 282 283 284 284 285 286 287 288 289 290 290 290 290 290 290 290 290 290 290 290 291 291 292 292 293 294 294 294 295 296 296 297 299 301 302 303 303 303 304 305 307 309 308 307 308 308 309 310 310 310 311 312 313 315 315 313 309 307
244 246 246 247 248 249 251 254 256 256 257 257 258 260 262 263 263 265 267 269 270 272 274 278 278 278 280 281 281 281 282 282 282 283 285 286 288 289 289 289 289 289 289 289 289 289 289 289 289 290 290 290 291 292 293 293 293 294 295 296 298 299 301 301 301 302 303 304 305 307 307 306 306 307 307 307 309 310 309 309 310 313 314 314 312 309 306
244 246 245 244 245 246 247 251 254 257 258 259 259 260 261 262 263 264 266 269 271 272 273 275 276 278 279 280 280 281 281 279 279 281 284 287 288 289 289 287 285 286 288 289 289 289 289 289 289 289 289 290 290 291 292 292 293 295 296 298 299 299 300 300 301 301 302 303 304 306 305 305 305 305 305 306 308 309 307 306 308 311 312 312 311 307 304
244 246 246 245 245 246 247 250 252 255 258 260 260 258 259 261 263 265 267 269 271 273 273 274 275 277 277 277 279 280 278 276 280 285 286 287 288 288 287 285 284 285 288 288 289 289 288 288 288 287 288 289 290 292 293 294 295 297 298 299 299 299 300 301 301 302 302 303 304 304 304 303 303 304 304 305 306 307 306 304 305 309 311 312 310 305 302
246 246 247 247 248 249 250 251 252 253 256 259 260 259 259 260 262 265 267 269 271 273 274 274 275 276 277 278 279 279 278 279 284 287 287 287 287 287 287 287 286 286 287 288 287 287 286 286 286 286 288 291 293 295 296 296 297 298 299 299 299 299 300 301 302 302 302 303 303 303 302 302 301 301 302 302 303 304 303 300 301 306 309 308 305 301 300
243 243 244 246 247 249 251 252 252 253 256 259 259 259 260 261 262 264 267 268 270 272 273 274 275 276 278 279 279 280 284 285 284 284 286 288 289 289 289 288 286 286 287 287 286 286 285 285 286 288 291 294 296 296 296 296 297 298 299 299 299 299 299 300 300 301 302 302 301 301 300 300 299 298 299 299 300 301 298 295 297 302 304 303 300 296 296
243 244 245 247 247 248 250 252 253 254 256 259 261 261 263 263 264 265 267 269 271 272 273 275 275 276 277 278 279 283 284 277 273 279 287 289 289 289 288 286 285 285 285 285 285 283 282 284 287 291 293 296 296 295 294 295 297 299 299 299 299 298 298 299 300 301 301 300 300 299 298 296 295 296 297 297 298 298 295 293 295 298 300 301 298 293 294
248 248 247 248 249 250 250 251 253 256 259 261 262 262 264 265 266 268 269 271 272 273 274 276 277 276 276 278 280 281 276 267 270 282 288 286 286 287 284 283 284 285 285 287 286 282 280 283 288 291 293 295 295 294 294 296 298 299 299 298 298 298 298 298 299 300 300 299 298 296 295 295 295 295 296 296 295 295 294 294 294 296 298 299 296 291 291
249 249 249 249 251 254 254 254 255 258 260 261 262 262 264 266 267 269 270 271 272 274 275 278 279 278 276 279 279 276 273 273 278 284 284 282 283 284 282 283 285 285 286 287 284 280 280 285 290 292 293 293 293 294 296 297 298 298 298 297 297 297 297 297 297 296 297 296 294 293 293 293 293 293 294 294 293 292 292 292 293 295 296 296 294 289 288
248 250 252 252 253 256 258 258 257 256 257 259 262 263 265 266 267 268 270 272 273 274 276 278 279 278 279 280 274 269 273 279 280 279 279 280 280 279 278 281 283 283 283 283 280 279 282 287 290 291 291 291 291 293 295 296 297 297 297 296 296 295 295 295 294 294 294 293 291 291 291 291 291 291 292 292 291 290 290 290 293 294 294 294 291 287 285
251 250 252 254 255 256 257 257 259 260 259 259 261 262 264 266 268 269 270 272 274 275 275 276 276 276 278 277 267 265 273 280 278 276 277 277 276 276 277 280 281 280 280 280 281 283 285 287 289 289 290 291 292 293 293 294 296 296 295 295 294 294 293 292 291 291 291 289 288 289 290 290 290 290 290 290 289 288 288 290 292 293 293 293 291 286 282
254 251 251 255 257 258 258 257 259 260 260 261 263 265 266 268 270 270 271 272 274 274 274 274 274 275 278 275 268 268 274 277 275 275 275 274 275 276 278 280 280 280 280 281 283 284 286 287 288 289 291 292 294 294 294 295 295 296 295 294 293 292 291 290 290 290 289 288 287 287 287 288 288 288 289 290 290 288 289 291 291 291 293 293 291 285 280
256 254 254 255 258 259 260 259 259 259 261 263 266 267 268 269 270 271 272 272 273 273 273 273 274 275 277 275 271 272 274 274 272 273 274 275 275 275 275 277 278 279 280 282 283 284 286 288 288 289 291 293 294 295 296 296 296 296 296 295 293 292 290 289 289 288 288 287 286 285 285 286 287 287 288 289 289 287 288 290 290 292 294 294 291 284 278
256 256 257 258 260 261 260 261 262 263 265 266 267 268 268 270 270 271 272 272 273 273 273 274 274 275 274 271 268 269 271 269 269 270 271 271 272 273 274 276 277 278 280 282 284 285 287 289 289 290 292 295 296 296 296 297 297 297 297 297 296 293 291 289 288 286 285 284 283 282 282 283 284 285 285 285 286 286 287 289 291 292 293 292 291 285 277
256 257 258 260 261 262 263 264 265 267 267 267 268 268 269 269 270 270 271 271 271 271 271 272 272 271 270 268 267 267 267 265 265 266 267 269 271 274 276 278 279 281 283 283 285 286 287 289 290 292 294 296 297 297 297 297 297 297 297 296 294 292 290 288 286 284 283 282 281 281 281 281 281 282 282 282 284 286 288 289 291 291 291 291 291 288 281
256 258 259 260 262 264 265 266 266 266 267 267 268 268 268 268 269 269 270 270 271 270 270 270 269 269 269 268 269 269 269 268 268 269 271 273 275 276 277 279 280 281 282 283 284 286 287 289 292 294 296 298 298 298 297 297 296 296 295 294 291 289 286 284 282 281 281 282 281 280 280 280 281 281 280 280 282 286 288 288 288 289 290 289 288 285 279
258 259 261 262 263 264 264 265 266 267 267 267 268 268 268 268 269 269 269 269 269 270 269 268 268 269 270 270 270 270 270 271 272 274 275 276 276 276 277 278 279 279 280 282 284 286 288 290 292 294 296 298 299 298 296 296 296 296 295 294 291 288 285 282 280 279 279 281 282 282 281 281 282 282 280 280 281 284 286 286 286 288 290 288 285 282 277
259 260 260 261 262 263 264 265 266 266 267 267 268 268 268 269 269 269 269 269 269 269 269 268 268 269 271 272 271 271 271 272 274 275 275 274 274 275 275 276 278 279 281 283 285 286 289 291 292 292 294 296 296 295 295 296 296 296 296 294 292 288 285 283 281 279 278 279 282 284 284 284 283 281 279 279 281 282 282 282 283 286 290 289 282 277 274
261 261 261 262 263 264 264 265 266 266 267 267 267 268 268 269 270 270 271 270 270 270 270 270 271 271 271 271 272 272 273 274 275 275 274 274 275 276 276 277 279 281 283 285 286 287 290 291 292 292 293 293 293 295 297 298 298 297 296 294 291 288 285 283 282 281 280 279 280 283 284 283 282 281 280 280 280 279 278 277 278 282 286 285 279 275 276
263 263 263 263 264 264 265 265 266 266 267 267 268 268 268 268 269 270 271 271 271 271 271 272 272 272 272 271 271 273 274 274 273 274 276 277 278 278 279 280 281 282 284 286 287 289 291 291 290 290 291 291 293 296 298 299 298 298 297 294 291 288 285 283 283 282 281 280 280 280 281 281 281 281 280 279 278 278 278 277 276 275 275 275 277 280 282
262 263 263 264 264 265 265 266 266 266 267 267 267 267 267 268 268 269 269 270 271 271 271 272 272 272 273 272 272 273 274 273 273 276 279 279 278 279 279 280 281 282 284 286 288 290 290 288 287 289 290 291 293 296 298 297 297 297 296 293 290 287 285 284 285 284 282 281 280 280 280 281 280 279 277 276 275 275 275 274 274 272 270 272 276 279 279
264 265 265 265 266 266 266 266 266 267 267 267 267 267 267 268 268 269 269 269 270 271 271 271 271 271 272 272 272 272 272 273 275 278 279 278 278 278 279 280 281 282 284 286 288 289 288 287 289 290 291 292 294 295 295 294 294 294 292 288 286 284 283 284 284 283 282 282 281 281 281 280 279 278 276 275 275 275 275 275 276 274 272 271 272 272 273
266 266 266 266 266 266 267 267 267 267 267 267 267 267 268 268 269 269 269 269 270 270 271 271 270 270 270 271 272 273 274 275 276 276 276 275 276 278 279 280 281 282 284 285 285 285 285 287 289 290 290 292 294 294 293 293 294 292 289 284 282 281 281 282 282 281 281 282 281 281 281 282 281 280 277 275 274 274 274 273 273 273 272 271 270 271 274
267 267 266 266 266 266 266 266 267 267 267 267 267 266 266 267 267 268 268 268 269 269 270 270 271 271 271 272 273 274 276 276 276 276 276 277 278 278 279 279 280 282 282 282 281 281 283 285 286 288 290 292 293 293 293 294 294 293 289 284 281 281 281 281 280 280 281 281 281 282 283 284 284 282 278 274 271 269 268 269 271 273 274 274 274 275 276
269 269 268 268 267 267 266 265 265 265 265 265 265 265 265 265 265 266 266 267 267 268 269 269 270 271 271 271 272 273 273 274 275 276 278 279 279 278 277 278 279 279 280 280 280 281 282 283 286 289 291 292 292 293 293 294 294 293 290 285 282 281 280 278 278 279 280 282 283 283 284 284 283 281 278 274 271 270 271 272 274 276 277 278 279 279 279
271 271 271 270 269 268 267 265 264 264 264 264 264 264 264 264 264 265 266 267 268 268 269 270 270 271 271 272 272 273 274 276 277 278 278 278 277 276 275 275 275 275 276 276 278 280 282 284 287 289 290 291 292 292 291 291 291 290 289 286 283 281 279 278 278 279 280 281 282 282 282 282 281 279 278 278 277 277 277 276 277 278 279 281 282 282 282
272 272 271 270 270 269 268 267 265 264 263 263 263 263 264 265 265 266 267 269 269 269 268 269 270 271 272 274 276 277 278 278 277 275 274 274 274 274 273 272 272 273 273 274 276 279 281 283 286 288 289 290 290 289 288 288 287 287 286 285 283 280 278 278 279 280 281 282 281 281 280 280 279 279 279 279 279 280 280 281 281 282 282 282 283 283 283
273 272 271 270 269 268 266 265 264 263 262 262 262 263 264 265 266 267 268 268 268 268 268 269 271 273 275 276 277 278 277 275 271 269 268 270 271 271 272 272 273 274 274 275 276 278 280 283 285 287 288 287 287 286 286 286 285 285 284 283 281 279 279 279 280 282 283 283 283 281 280 279 278 278 278 279 280 281 283 283 283 283 284 284 284 284 283
279 278 275 272 270 269 267 264 262 261 261 261 262 263 263 264 265 266 267 267 268 269 271 272 274 275 275 275 274 273 270 267 265 264 264 266 267 268 269 271 273 274 275 276 277 279 281 283 285 286 285 285 285 285 285 284 284 284 283 282 280 280 280 280 281 282 284 284 283 282 280 279 278 278 278 280 281 282 282 282 282 283 283 283 283 283 283
285 286 284 276 270 269 271 268 262 259 258 258 259 261 261 262 263 265 267 269 271 271 273 274 275 275 274 272 270 267 263 260 259 259 260 262 265 268 270 273 274 274 275 277 278 280 281 283 284 284 284 284 284 283 283 283 283 283 282 282 281 280 280 280 282 283 283 282 281 280 279 279 280 280 280 280 280 281 281 281 282 283 283 283 283 283 283
284 289 288 277 262 259 265 268 263 257 254 254 256 259 261 263 265 267 268 270 271 271 272 273 274 274 271 267 261 257 256 256 257 258 261 266 271 274 276 276 275 275 276 277 278 279 281 282 283 283 283 283 283 283 282 282 282 281 281 281 281 281 281 282 283 283 282 280 279 279 280 280 281 282 282 282 282 283 283 284 284 285 285 285 284 284 284
285 291 290 274 256 254 262 266 262 254 249 249 254 258 260 263 266 268 269 270 271 272 272 272 271 269 265 257 250 251 256 259 260 262 266 271 274 275 275 275 275 275 277 277 279 281 283 283 282 282 283 283 283 282 281 280 280 279 279 279 280 281 282 283 283 282 282 281 281 282 282 283 284 285 285 285 286 286 286 286 286 286 286 286 286 285 285
287 293 294 277 258 257 262 262 255 248 244 248 254 259 261 264 267 268 269 270 271 271 270 268 265 261 256 251 250 255 262 265 265 267 270 272 273 274 275 276 277 278 279 280 282 284 284 283 282 283 283 283 282 281 280 279 279 279 279 279 280 281 282 283 284 283 282 282 282 283 283 284 285 286 286 287 287 287 287 287 286 286 286 286 286 285 285
287 294 297 283 265 262 265 262 254 248 246 251 257 262 265 267 268 268 267 266 266 265 264 261 256 253 252 254 259 265 268 270 271 272 273 274 275 276 277 278 279 280 282 283 284 284 283 283 283 284 283 283 282 282 282 282 281 281 281 281 282 283 284 284 284 283 282 282 282 283 284 284 285 286 286 286 286 285 285 285 285 285 285 285 285 284 284
299 302 306 298 277 266 261 257 254 252 251 254 258 263 266 268 269 267 263 259 257 258 259 259 259 260 263 266 268 270 272 274 275 275 276 277 279 280 281 282 283 284 284 285 285 284 283 283 284 284 284 284 284 284 285 285 283 282 281 281 282 283 284 284 283 282 282 282 283 284 284 285 285 285 284 284 284 284 283 283 283 284 284 284 284 285 284
296 300 300 291 282 273 260 251 250 251 253 255 257 257 257 259 262 263 260 257 259 264 268 269 270 271 272 273 274 275 276 277 278 278 279 281 282 283 285 285 285 285 284 284 284 284 284 284 284 285 285 285 285 286 285 284 281 280 280 280 282 283 283 283 282 281 281 283 283 284 284 284 284 283 283 282 282 281 281 281 282 284 284 285 285 285 284
283 281 272 263 262 261 252 240 237 241 248 253 255 251 246 247 254 262 267 270 272 274 276 277 279 279 279 279 280 280 281 281 282 283 284 284 285 286 286 286 286 285 285 285 285 284 284 285 285 286 286 286 286 285 284 282 280 279 279 280 281 282 283 282 281 281 282 282 283 283 283 283 282 282 281 280 279 278 279 280 282 283 284 284 284 283 283
278 272 265 258 253 241 225 220 233 255 268 274 276 270 261 257 260 267 271 274 276 278 280 282 282 281 281 281 281 282 283 284 284 284 286 287 288 289 288 288 287 287 286 286 287 286 285 285 286 286 286 286 285 285 284 282 281 280 279 279 280 281 281 281 280 280 280 281 281 281 281 282 281 280 278 276 275 276 277 279 280 280 280 280 280 279 279
329 326 325 327 335 343 332 315 310 304 291 282 280 279 276 274 276 279 281 282 283 283 283 283 282 281 282 283 284 285 286 287 287 287 288 290 291 291 291 290 289 288 288 288 288 288 288 287 286 285 284 283 283 282 282 281 280 279 278 278 278 278 278 278 278 278 279 279 279 280 280 279 278 276 273 272 273 274 274 275 275 276 276 276 276 276 276
Height
5869 5872 5875 5879 5881 5881 5881 5881 5881 5883 5884 5885 5885 5885 5887 5886 5884 5883 5882 5880 5882 5884 5883 5882 5880 5879 5880 5880 5879 5878 5877 5877 5876 5875 5875 5875 5875 5874 5874 5873 5873 5872 5871 5871 5871 5869 5868 5868 5868 5866 5865 5864 5863 5862 5861 5860 5858 5856 5855 5853 5851 5849 5848 5846 5844 5841 5839 5837 5835 5832 5830 5827 5825 5822 5820 5817 5814 5811 5808 5805 5801 5798 5794 5790 5787 5783 5780
5867 5868 5871 5876 5876 5876 5876 5878 5879 5881 5882 5881 5881 5882 5884 5883 5880 5879 5878 5877 5878 5880 5880 5877 5876 5877 5877 5877 5877 5876 5875 5874 5873 5872 5871 5871 5871 5870 5870 5869 5868 5867 5867 5866 5866 5865 5864 5864 5863 5862 5861 5860 5859 5858 5857 5856 5854 5852 5851 5849 5847 5845 5844 5842 5840 5837 5835 5833 5830 5827 5825 5823 5820 5818 5815 5812 5809 5806 5803 5799 5796 5793 5790 5786 5782 5778 5774
5862 5865 5870 5871 5868 5867 5870 5874 5877 5878 5879 5879 5880 5880 5880 5879 5877 5874 5874 5873 5874 5876 5875 5873 5873 5875 5874 5873 5874 5873 5872 5871 5870 5869 5868 5868 5867 5866 5866 5865 5865 5863 5863 5862 5862 5861 5860 5859 5859 5858 5857 5857 5856 5855 5854 5852 5850 5849 5847 5845 5843 5841 5840 5838 5836 5833 5831 5828 5826 5823 5820 5818 5815 5813 5810 5807 5804 5801 5798 5794 5791 5788 5785 5781 5778 5774 5770
5857 5862 5865 5863 5862 5864 5865 5868 5871 5873 5874 5876 5876 5875 5876 5875 5872 5869 5870 5871 5871 5871 5870 5869 5870 5872 5872 5871 5871 5870 5869 5868 5867 5866 5865 5864 5863 5863 5862 5862 5861 5860 5859 5859 5858 5857 5856 5855 5855 5854 5853 5853 5852 5851 5849 5847 5846 5844 5842 5840 5839 5837 5836 5834 5832 5829 5826 5824 5821 5818 5816 5813 5810 5807 5804 5801 5799 5796 5793 5789 5786 5783 5780 5777 5773 5769 5766
5853 5856 5857 5856 5859 5860 5858 5861 5865 5867 5869 5871 5870 5870 5870 5867 5864 5864 5867 5868 5867 5865 5865 5866 5866 5867 5868 5867 5867 5866 5865 5864 5863 5862 5861 5860 5860 5859 5859 5858 5858 5857 5856 5855 5854 5853 5852 5851 5851 5850 5849 5849 5848 5846 5844 5843 5841 5840 5838 5836 5835 5833 5832 5830 5827 5825 5822 5819 5817 5814 5811 5808 5805 5802 5799 5796 5794 5791 5788 5785 5782 5779 5776 5772 5769 5765 5762
5849 5852 5852 5852 5852 5851 5852 5857 5860 5861 5862 5863 5863 5864 5863 5859 5858 5861 5864 5863 5862 5860 5861 5862 5862 5862 5863 5862 5862 5862 5861 5859 5859 5858 5857 5856 5856 5856 5855 5855 5854 5853 5852 5851 5850 5849 5848 5848 5847 5845 5845 5845 5843 5841 5840 5839 5837 5835 5834 5833 5831 5829 5828 5826 5823 5820 5817 5815 5812 5809 5806 5803 5800 5797 5794 5792 5789 5786 5783 5780 5778 5775 5771 5768 5765 5761 5758
5845 5848 5848 5846 5845 5845 5849 5852 5852 5853 5856 5856 5856 5858 5857 5854 5854 5857 5859 5859 5857 5857 5857 5858 5857 5858 5858 5858 5857 5857 5856 5855 5854 5853 5853 5852 5852 5852 5851 5851 5850 5849 5848 5847 5846 5845 5845 5844 5842 5842 5841 5840 5838 5837 5836 5835 5834 5831 5830 5828 5827 5825 5823 5821 5818 5815 5812 5810 5808 5805 5802 5799 5796 5793 5790 5787 5784 5781 5778 5776 5773 5770 5767 5764 5761 5758 5754
5840 5843 5842 5841 5840 5842 5844 5845 5846 5848 5851 5851 5851 5852 5851 5851 5851 5852 5854 5854 5853 5853 5854 5853 5853 5854 5854 5853 5853 5852 5851 5850 5849 5849 5849 5848 5848 5848 5848 5847 5846 5846 5845 5844 5843 5842 5841 5840 5839 5838 5837 5835 5834 5833 5832 5831 5830 5828 5826 5824 5822 5820 5818 5816 5813 5810 5808 5806 5804 5801 5797 5794 5791 5788 5785 5782 5779 5777 5774 5772 5769 5766 5762 5759 5756 5754 5751
5835 5837 5838 5837 5837 5838 5838 5840 5842 5844 5847 5847 5846 5846 5846 5846 5846 5848 5849 5848 5848 5849 5850 5849 5848 5849 5849 5849 5848 5847 5846 5846 5845 5845 5845 5845 5845 5844 5844 5843 5843 5842 5841 5840 5839 5838 5837 5836 5835 5834 5833 5831 5830 5829 5828 5827 5825 5823 5821 5819 5817 5815 5814 5812 5809 5806 5804 5801 5799 5796 5793 5789 5786 5783 5780 5777 5775 5772 5770 5767 5764 5761 5758 5755 5753 5750 5747
5830 5832 5834 5833 5833 5834 5834 5835 5837 5840 5842 5841 5840 5843 5844 5841 5842 5844 5844 5841 5842 5844 5845 5845 5844 5844 5844 5844 5843 5842 5842 5842 5841 5841 5841 5841 5841 5841 5840 5840 5839 5838 5837 5836 5835 5834 5833 5832 5831 5830 5829 5828 5826 5825 5824 5822 5821 5819 5817 5814 5812 5811 5809 5807 5804 5802 5799 5796 5794 5791 5788 5785 5782 5779 5776 5773 5770 5768 5766 5763 5760 5757 5754 5751 5749 5747 5744
5827 5828 5829 5829 5830 5831 5830 5831 5833 5835 5835 5835 5836 5839 5840 5838 5838 5839 5838 5836 5837 5839 5840 5840 5840 5840 5840 5840 5838 5837 5838 5837 5837 5837 5837 5837 5837 5837 5836 5835 5834 5833 5833 5832 5831 5830 5829 5828 5827 5825 5824 5823 5822 5821 5819 5817 5816 5814 5812 5810 5808 5807 5805 5803 5800 5797 5794 5791 5788 5786 5783 5780 5777 5774 5771 5768 5766 5763 5761 5759 5756 5754 5751 5748 5746 5743 5741
5822 5823 5823 5825 5827 5827 5826 5828 5830 5829 5828 5831 5834 5835 5834 5833 5833 5833 5832 5832 5834 5835 5835 5835 5836 5835 5836 5836 5834 5832 5833 5833 5832 5833 5833 5832 5832 5832 5831 5831 5830 5829 5828 5827 5826 5825 5824 5823 5822 5821 5820 5819 5818 5816 5815 5813 5811 5809 5807 5806 5804 5802 5800 5798 5796 5792 5789 5786 5783 5780 5778 5775 5772 5769 5766 5764 5761 5759 5757 5755 5752 5750 5747 5745 5743 5740 5738
5817 5818 5819 5822 5823 5821 5821 5825 5826 5824 5824 5826 5829 5829 5827 5826 5827 5827 5828 5830 5831 5830 5830 5831 5832 5831 5831 5831 5830 5828 5828 5828 5828 5828 5828 5828 5828 5827 5826 5826 5825 5824 5823 5822 5821 5820 5819 5819 5818 5817 5816 5814 5813 5811 5810 5808 5806 5804 5802 5801 5799 5797 5795 5792 5790 5787 5784 5781 5778 5775 5773 5770 5767 5764 5762 5760 5757 5755 5753 5750 5747 5745 5743 5741 5739 5737 5735
5813 5813 5815 5817 5817 5815 5817 5820 5820 5820 5821 5822 5822 5822 5821 5822 5824 5824 5824 5827 5828 5827 5826 5826 5827 5827 5827 5826 5826 5825 5824 5824 5824 5823 5823 5823 5823 5822 5822 5821 5820 5819 5818 5817 5816 5816 5815 5814 5813 5812 5811 5809 5808 5806 5804 5803 5801 5799 5797 5795 5794 5792 5790 5787 5785 5782 5779 5776 5773 5770 5768 5765 5762 5760 5757 5756 5754 5751 5748 5745 5743 5741 5738 5737 5735 5733 5731
5808 5808 5810 5811 5809 5809 5813 5814 5812 5814 5816 5816 5817 5818 5818 5819 5820 5820 5820 5822 5823 5823 5823 5822 5822 5823 5823 5822 5821 5821 5820 5819 5819 5819 5818 5818 5818 5817 5817 5816 5815 5814 5813 5812 5811 5811 5810 5809 5808 5807 5806 5804 5802 5801 5799 5797 5795 5794 5792 5790 5788 5786 5784 5782 5779 5776 5774 5771 5768 5766 5763 5761 5758 5756 5753 5751 5750 5746 5743 5740 5738 5736 5734 5733 5732 5730 5728
5803 5803 5803 5803 5802 5804 5807 5807 5807 5809 5810 5811 5813 5814 5814 5814 5814 5815 5817 5817 5817 5819 5819 5819 5818 5818 5818 5818 5817 5817 5815 5814 5813 5814 5813 5813 5813 5812 5812 5811 5810 5808 5808 5807 5806 5805 5804 5804 5803 5801 5800 5799 5797 5796 5794 5792 5790 5789 5787 5785 5783 5781 5778 5776 5774 5771 5768 5766 5763 5761 5759 5756 5754 5752 5749 5747 5745 5743 5740 5737 5734 5732 5731 5730 5728 5726 5725
5797 5797 5797 5797 5797 5799 5801 5803 5804 5804 5804 5806 5808 5809 5810 5810 5810 5811 5812 5812 5813 5813 5814 5814 5814 5814 5814 5814 5813 5812 5810 5808 5808 5808 5808 5808 5808 5807 5807 5807 5805 5804 5802 5802 5801 5800 5799 5798 5797 5796 5795 5794 5792 5791 5789 5787 5785 5783 5781 5779 5778 5775 5773 5770 5768 5765 5763 5761 5759 5756 5754 5752 5750 5747 5745 5743 5741 5739 5736 5733 5731 5729 5727 5726 5725 5723 5721
5792 5792 5793 5794 5795 5796 5797 5798 5799 5800 5800 5802 5804 5805 5806 5806 5806 5806 5807 5808 5808 5808 5808 5809 5808 5808 5808 5808 5807 5806 5804 5803 5803 5803 5802 5803 5803 5802 5802 5802 5800 5798 5798 5797 5795 5795 5794 5793 5792 5791 5790 5788 5787 5785 5783 5781 5779 5778 5776 5774 5772 5770 5767 5764 5762 5760 5758 5756 5754 5751 5749 5747 5745 5744 5742 5739 5737 5734 5733 5730 5729 5727 5725 5723 5722 5720 5717
5786 5786 5788 5790 5790 5791 5792 5793 5794 5796 5797 5798 5799 5801 5801 5801 5801 5802 5802 5802 5803 5803 5803 5803 5803 5802 5802 5801 5800 5800 5799 5798 5798 5797 5797 5797 5797 5796 5796 5796 5795 5793 5792 5792 5790 5789 5788 5788 5787 5785 5783 5782 5781 5779 5777 5776 5774 5772 5771 5768 5766 5764 5762 5759 5757 5755 5753 5751 5748 5747 5744 5742 5741 5740 5738 5735 5732 5730 5728 5726 5725 5724 5722 5720 5718 5716 5714
5780 5781 5783 5784 5785 5786 5787 5787 5789 5791 5792 5793 5794 5795 5795 5795 5796 5796 5797 5797 5798 5797 5797 5797 5797 5797 5796 5795 5795 5795 5794 5792 5791 5791 5791 5791 5791 5791 5790 5790 5789 5788 5787 5786 5785 5784 5783 5782 5781 5779 5777 5776 5774 5773 5772 5770 5768 5766 5765 5762 5760 5758 5756 5754 5751 5749 5747 5745 5743 5741 5739 5738 5737 5735 5733 5730 5727 5725 5723 5722 5720 5719 5717 5715 5714 5712 5710
5775 5776 5778 5778 5780 5780 5780 5782 5785 5787 5787 5788 5789 5789 5789 5789 5789 5790 5791 5792 5792 5792 5792 5792 5791 5790 5790 5790 5790 5789 5789 5788 5786 5785 5786 5785 5785 5785 5784 5783 5782 5782 5781 5780 5779 5778 5777 5776 5775 5774 5773 5771 5769 5767 5765 5764 5762 5759 5758 5756 5754 5752 5750 5748 5746 5744 5742 5740 5738 5736 5734 5732 5731 5728 5726 5724 5723 5720 5718 5717 5715 5713 5711 5710 5709 5707 5705
5770 5770 5772 5774 5775 5774 5774 5778 5782 5783 5782 5782 5782 5783 5783 5783 5784 5785 5786 5786 5786 5787 5786 5786 5785 5784 5783 5784 5784 5782 5782 5782 5781 5779 5780 5780 5779 5779 5778 5777 5777 5776 5775 5774 5773 5773 5772 5770 5769 5768 5767 5766 5764 5761 5759 5758 5756 5753 5751 5749 5748 5746 5744 5742 5741 5739 5738 5735 5732 5730 5729 5727 5725 5723 5720 5719 5717 5716 5714 5712 5710 5709 5707 5705 5704 5702 5701
5765 5767 5768 5770 5771 5771 5772 5774 5775 5776 5777 5777 5777 5778 5778 5778 5779 5780 5781 5780 5780 5782 5781 5780 5779 5779 5777 5778 5779 5776 5774 5775 5775 5775 5775 5775 5774 5773 5773 5772 5771 5770 5769 5769 5768 5767 5766 5765 5764 5763 5761 5759 5758 5756 5753 5751 5749 5747 5745 5743 5741 5740 5738 5736 5735 5734 5732 5730 5727 5725 5724 5723 5721 5719 5715 5713 5711 5710 5709 5707 5705 5704 5702 5700 5699 5698 5696
5761 5763 5764 5765 5766 5767 5768 5768 5768 5768 5771 5772 5772 5772 5773 5773 5773 5775 5775 5774 5774 5776 5776 5773 5772 5772 5772 5773 5774 5771 5768 5769 5770 5770 5769 5769 5768 5767 5767 5766 5765 5765 5764 5763 5762 5761 5760 5759 5758 5756 5754 5753 5751 5749 5747 5745 5742 5740 5738 5736 5734 5733 5732 5730 5729 5727 5726 5724 5723 5720 5719 5717 5716 5713 5710 5707 5705 5704 5703 5702 5700 5698 5696 5695 5695 5693 5692
5754 5757 5759 5760 5760 5760 5762 5763 5763 5762 5764 5766 5767 5767 5767 5767 5767 5768 5769 5769 5769 5769 5769 5768 5767 5767 5767 5768 5768 5766 5765 5765 5765 5764 5763 5763 5762 5761 5761 5761 5760 5759 5758 5757 5756 5755 5754 5753 5752 5750 5747 5746 5744 5741 5739 5738 5736 5733 5731 5729 5727 5726 5724 5722 5721 5720 5719 5718 5717 5715 5713 5711 5709 5707 5704 5701 5699 5697 5696 5696 5695 5693 5691 5690 5689 5688 5687
5749 5752 5753 5753 5754 5754 5755 5757 5757 5757 5759 5761 5761 5760 5761 5761 5761 5762 5762 5762 5763 5763 5762 5762 5761 5761 5762 5762 5761 5760 5760 5761 5760 5758 5758 5757 5756 5755 5755 5755 5754 5753 5752 5751 5750 5749 5748 5747 5745 5743 5740 5738 5737 5734 5732 5730 5728 5726 5724 5722 5720 5719 5717 5715 5714 5713 5712 5711 5710 5708 5707 5705 5703 5701 5700 5697 5694 5692 5690 5689 5689 5688 5686 5685 5684 5683 5682
5745 5746 5747 5747 5747 5748 5749 5750 5751 5752 5754 5755 5754 5754 5754 5755 5755 5755 5755 5756 5756 5756 5756 5755 5755 5755 5756 5756 5755 5754 5755 5755 5754 5752 5752 5751 5750 5750 5749 5749 5748 5746 5746 5746 5745 5743 5742 5740 5737 5735 5733 5731 5729 5727 5725 5723 5721 5719 5717 5715 5714 5712 5710 5709 5707 5706 5704 5704 5703 5702 5701 5700 5698 5697 5695 5691 5689 5687 5686 5684 5683 5683 5682 5680 5679 5677 5676
5740 5740 5741 5741 5740 5741 5743 5745 5746 5746 5747 5747 5747 5748 5748 5748 5749 5749 5749 5749 5749 5750 5750 5749 5748 5749 5749 5749 5748 5748 5749 5748 5747 5746 5746 5745 5744 5744 5743 5742 5741 5740 5740 5739 5738 5736 5734 5732 5730 5728 5726 5725 5722 5720 5718 5716 5714 5712 5711 5709 5707 5705 5703 5702 5701 5699 5697 5697 5696 5695 5694 5694 5693 5692 5689 5686 5683 5682 5680 5679 5678 5678 5677 5676 5674 5673 5672
5734 5734 5735 5735 5735 5736 5737 5738 5739 5740 5740 5740 5741 5741 5741 5741 5742 5742 5742 5742 5742 5743 5744 5743 5742 5742 5743 5742 5742 5741 5741 5740 5740 5740 5740 5739 5738 5738 5736 5735 5734 5734 5733 5732 5731 5729 5727 5725 5723 5721 5719 5718 5716 5713 5711 5709 5707 5706 5704 5702 5700 5698 5696 5695 5694 5693 5691 5690 5689 5688 5687 5687 5686 5686 5684 5682 5680 5677 5675 5674 5674 5674 5673 5672 5671 5669 5668
5728 5729 5729 5730 5730 5731 5731 5731 5732 5733 5733 5733 5734 5734 5734 5734 5735 5735 5736 5736 5735 5736 5736 5736 5735 5735 5735 5735 5734 5734 5733 5732 5732 5733 5734 5733 5731 5730 5730 5728 5727 5726 5726 5725 5724 5722 5720 5719 5717 5715 5713 5711 5709 5707 5704 5702 5701 5699 5697 5695 5693 5691 5690 5689 5688 5687 5686 5685 5683 5682 5681 5681 5680 5679 5677 5676 5674 5673 5671 5670 5669 5669 5668 5667 5666 5665 5664
5723 5723 5723 5723 5724 5724 5724 5725 5726 5726 5726 5727 5727 5727 5727 5727 5728 5728 5729 5729 5729 5729 5729 5729 5729 5729 5729 5728 5727 5726 5726 5725 5725 5726 5727 5726 5724 5723 5723 5721 5719 5719 5719 5719 5717 5715 5714 5712 5710 5709 5707 5705 5703 5701 5698 5696 5694 5693 5691 5689 5687 5685 5684 5683 5682 5682 5682 5680 5678 5676 5675 5675 5674 5673 5671 5670 5669 5668 5666 5665 5665 5664 5663 5662 5661 5660 5659
5716 5717 5717 5717 5718 5718 5718 5719 5720 5720 5720 5720 5720 5720 5720 5720 5721 5721 5721 5722 5722 5722 5722 5722 5722 5722 5722 5722 5720 5720 5720 5719 5719 5719 5719 5718 5717 5716 5716 5715 5713 5712 5711 5711 5710 5709 5707 5706 5704 5702 5701 5700 5697 5695 5692 5690 5688 5687 5685 5683 5681 5679 5678 5677 5676 5676 5676 5676 5674 5672 5670 5669 5667 5666 5665 5665 5664 5663 5662 5661 5661 5660 5659 5658 5657 5656 5655
5710 5710 5711 5711 5711 5712 5712 5713 5713 5714 5714 5714 5714 5714 5714 5714 5714 5715 5715 5715 5715 5715 5715 5715 5715 5715 5716 5715 5714 5713 5713 5711 5711 5711 5712 5711 5710 5709 5709 5708 5707 5705 5705 5704 5703 5702 5701 5700 5697 5695 5695 5693 5691 5689 5686 5684 5683 5681 5679 5677 5675 5674 5673 5672 5671 5671 5670 5670 5669 5667 5665 5663 5662 5661 5661 5660 5659 5658 5658 5657 5656 5656 5655 5654 5653 5652 5652
5703 5704 5705 5705 5705 5706 5706 5706 5707 5707 5708 5708 5708 5708 5708 5708 5708 5709 5709 5709 5709 5709 5709 5709 5709 5709 5709 5709 5708 5708 5706 5704 5704 5705 5705 5705 5704 5702 5702 5701 5700 5699 5699 5697 5696 5695 5695 5693 5691 5689 5688 5687 5685 5683 5681 5679 5677 5676 5674 5672 5670 5669 5667 5666 5666 5665 5665 5664 5663 5662 5661 5659 5658 5656 5656 5655 5654 5653 5653 5652 5651 5651 5651 5650 5649 5648 5648
5698 5699 5699 5699 5699 5699 5699 5700 5700 5701 5701 5701 5701 5701 5701 5702 5702 5702 5702 5703 5703 5703 5703 5703 5703 5702 5702 5701 5702 5701 5700 5698 5698 5699 5698 5697 5696 5695 5695 5694 5693 5692 5692 5690 5689 5689 5688 5687 5685 5683 5682 5681 5680 5677 5675 5673 5672 5671 5669 5667 5665 5664 5663 5662 5661 5660 5660 5659 5658 5657 5656 5655 5653 5652 5651 5650 5649 5648 5648 5647 5647 5646 5646 5645 5645 5644 5644
5692 5692 5693 5693 5693 5693 5693 5693 5694 5694 5694 5694 5695 5694 5694 5695 5695 5695 5696 5696 5696 5696 5696 5696 5696 5696 5695 5695 5694 5694 5692 5692 5693 5693 5691 5690 5689 5689 5687 5686 5686 5685 5684 5684 5684 5683 5682 5681 5680 5678 5676 5676 5674 5672 5670 5668 5666 5665 5664 5662 5661 5659 5658 5657 5656 5656 5655 5654 5653 5652 5651 5650 5649 5647 5646 5646 5645 5644 5644 5643 5643 5642 5641 5641 5641 5641 5640
5685 5685 5686 5686 5687 5687 5687 5687 5687 5687 5688 5688 5688 5688 5688 5688 5688 5688 5689 5689 5689 5690 5690 5689 5689 5689 5689 5688 5688 5687 5686 5685 5685 5685 5684 5683 5682 5681 5680 5679 5678 5678 5678 5678 5678 5677 5676 5675 5674 5672 5671 5670 5668 5666 5664 5662 5661 5659 5658 5657 5656 5655 5654 5653 5652 5651 5651 5650 5649 5647 5647 5646 5644 5643 5642 5641 5641 5640 5640 5639 5639 5638 5638 5637 5637 5637 5636
5678 5678 5679 5679 5679 5680 5681 5681 5681 5681 5681 5681 5681 5681 5682 5682 5682 5682 5682 5682 5682 5683 5683 5682 5682 5682 5682 5681 5681 5680 5679 5678 5678 5677 5677 5676 5675 5674 5673 5673 5672 5671 5671 5672 5672 5672 5670 5669 5668 5667 5665 5664 5663 5661 5659 5657 5656 5654 5653 5652 5651 5650 5649 5648 5647 5647 5646 5645 5644 5643 5642 5642 5641 5639 5638 5637 5637 5636 5636 5635 5635 5634 5634 5633 5633 5632 5632
5671 5671 5671 5671 5671 5672 5672 5673 5673 5673 5673 5673 5674 5674 5675 5675 5675 5676 5675 5675 5676 5677 5677 5676 5675 5675 5675 5674 5674 5673 5672 5671 5671 5670 5670 5669 5668 5668 5667 5667 5666 5665 5665 5665 5666 5665 5664 5663 5662 5661 5660 5658 5657 5655 5653 5652 5651 5650 5648 5647 5646 5645 5644 5643 5643 5642 5642 5641 5640 5639 5638 5637 5637 5636 5635 5634 5633 5632 5632 5631 5631 5631 5630 5630 5629 5628 5628
5664 5664 5664 5663 5663 5663 5664 5664 5665 5665 5665 5666 5666 5667 5668 5668 5669 5669 5669 5669 5670 5670 5670 5669 5668 5668 5667 5667 5667 5666 5666 5665 5664 5663 5663 5662 5663 5662 5662 5662 5661 5661 5660 5660 5660 5659 5658 5657 5656 5655 5654 5653 5651 5650 5648 5647 5646 5645 5644 5643 5642 5641 5640 5639 5638 5637 5637 5636 5636 5635 5634 5633 5632 5632 5631 5630 5629 5628 5628 5628 5627 5626 5626 5626 5625 5624 5624
5658 5657 5656 5656 5655 5655 5655 5655 5656 5656 5657 5658 5659 5660 5661 5662 5662 5662 5663 5663 5663 5663 5663 5663 5662 5662 5661 5660 5660 5660 5659 5658 5658 5657 5657 5657 5657 5657 5657 5657 5657 5656 5655 5654 5654 5653 5652 5651 5650 5649 5649 5647 5646 5645 5643 5642 5641 5640 5639 5638 5637 5636 5635 5635 5634 5633 5632 5632 5631 5630 5630 5629 5628 5627 5627 5626 5625 5625 5624 5624 5623 5622 5622 5621 5621 5620 5620
5652 5650 5649 5648 5648 5647 5646 5647 5648 5648 5649 5651 5653 5654 5654 5655 5655 5656 5656 5657 5657 5657 5657 5657 5656 5656 5655 5654 5654 5654 5653 5652 5652 5652 5652 5652 5652 5652 5652 5652 5652 5651 5650 5649 5648 5647 5647 5646 5645 5644 5643 5642 5641 5639 5638 5637 5636 5635 5634 5633 5632 5632 5631 5630 5629 5629 5628 5627 5626 5626 5625 5624 5624 5623 5623 5622 5621 5621 5620 5620 5619 5618 5618 5617 5617 5616 5616
5645 5644 5642 5641 5640 5639 5638 5639 5640 5640 5641 5645 5647 5647 5647 5648 5649 5650 5650 5651 5651 5651 5651 5650 5650 5649 5648 5647 5647 5648 5648 5648 5648 5648 5647 5647 5647 5647 5647 5647 5647 5646 5645 5644 5643 5642 5641 5641 5640 5638 5638 5637 5635 5634 5634 5633 5631 5630 5629 5628 5627 5627 5626 5625 5625 5624 5624 5623 5622 5621 5621 5620 5619 5619 5619 5618 5617 5617 5616 5615 5614 5614 5613 5613 5612 5612 5611
5639 5637 5634 5633 5632 5631 5630 5631 5633 5634 5636 5639 5641 5641 5642 5643 5644 5644 5645 5645 5645 5645 5645 5644 5644 5643 5642 5642 5642 5643 5643 5643 5643 5643 5643 5643 5643 5643 5643 5643 5642 5641 5640 5639 5637 5636 5637 5636 5635 5633 5632 5631 5630 5629 5629 5628 5627 5626 5624 5623 5622 5622 5621 5621 5620 5620 5619 5618 5618 5617 5616 5616 5615 5615 5614 5614 5613 5612 5611 5610 5610 5609 5608 5608 5607 5607 5606
5634 5631 5627 5625 5625 5626 5626 5627 5628 5629 5632 5635 5636 5637 5638 5638 5639 5639 5640 5640 5640 5639 5639 5639 5638 5638 5637 5637 5638 5639 5639 5639 5639 5639 5639 5639 5639 5639 5639 5638 5637 5636 5635 5633 5632 5632 5632 5631 5629 5628 5627 5626 5625 5624 5623 5622 5621 5621 5619 5618 5618 5617 5616 5616 5616 5615 5614 5614 5613 5613 5612 5611 5611 5610 5610 5609 5608 5607 5606 5606 5605 5604 5603 5603 5602 5602 5601
5629 5626 5623 5621 5622 5623 5624 5624 5625 5626 5629 5631 5632 5633 5634 5634 5635 5635 5635 5635 5634 5634 5634 5633 5633 5633 5634 5634 5635 5635 5635 5635 5636 5636 5635 5635 5635 5634 5634 5633 5632 5631 5630 5628 5628 5627 5627 5625 5624 5623 5622 5621 5620 5619 5619 5618 5617 5616 5615 5614 5613 5612 5612 5612 5612 5611 5610 5610 5609 5608 5608 5607 5606 5606 5605 5604 5603 5602 5602 5601 5600 5599 5598 5598 5597 5597 5596
5626 5624 5622 5620 5620 5621 5621 5622 5623 5625 5627 5628 5629 5630 5630 5630 5630 5630 5630 5630 5630 5630 5630 5629 5630 5630 5631 5632 5632 5632 5632 5632 5632 5631 5631 5630 5630 5630 5629 5628 5627 5626 5625 5624 5623 5623 5622 5620 5619 5618 5618 5617 5616 5615 5614 5613 5613 5612 5611 5610 5609 5608 5608 5608 5607 5607 5606 5605 5605 5604 5603 5603 5602 5601 5600 5599 5599 5598 5597 5596 5595 5595 5594 5594 5593 5593 5592
5624 5623 5621 5620 5619 5620 5620 5621 5622 5623 5624 5626 5626 5627 5627 5627 5626 5626 5626 5627 5627 5627 5627 5628 5628 5628 5628 5629 5629 5628 5628 5628 5627 5627 5626 5626 5625 5625 5624 5623 5622 5621 5621 5620 5619 5618 5617 5616 5615 5614 5614 5613 5612 5611 5611 5610 5609 5608 5607 5606 5605 5604 5604 5604 5603 5602 5602 5601 5600 5600 5599 5598 5597 5597 5596 5595 5594 5593 5593 5592 5591 5591 5590 5590 5589 5589 5588
5623 5622 5621 5620 5620 5620 5620 5620 5621 5621 5622 5623 5623 5624 5624 5624 5624 5624 5624 5625 5625 5625 5625 5625 5625 5625 5625 5625 5625 5625 5624 5624 5623 5623 5622 5621 5621 5621 5620 5619 5618 5617 5616 5616 5615 5615 5613 5612 5611 5611 5609 5608 5607 5607 5607 5606 5605 5604 5602 5601 5601 5600 5600 5599 5599 5598 5597 5596 5596 5595 5594 5594 5593 5592 5592 5591 5590 5589 5589 5588 5588 5587 5587 5586 5586 5585 5585
5623 5622 5621 5621 5620 5620 5619 5619 5619 5619 5620 5620 5620 5621 5622 5623 5623 5623 5623 5623 5623 5623 5623 5623 5623 5623 5622 5622 5622 5621 5621 5620 5619 5618 5618 5617 5617 5617 5616 5616 5615 5614 5612 5611 5611 5611 5609 5608 5607 5606 5605 5604 5603 5602 5602 5601 5600 5599 5598 5597 5596 5595 5595 5595 5594 5593 5593 5592 5591 5591 5590 5589 5589 5588 5587 5587 5586 5586 5585 5585 5585 5584 5583 5583 5583 5582 5582
5622 5622 5622 5621 5620 5620 5620 5619 5619 5619 5619 5619 5620 5621 5621 5622 5622 5621 5621 5621 5621 5621 5621 5621 5620 5620 5619 5619 5618 5618 5617 5616 5616 5615 5614 5613 5613 5613 5613 5612 5611 5610 5608 5607 5606 5606 5605 5604 5603 5602 5601 5599 5598 5597 5597 5596 5595 5594 5593 5592 5591 5591 5590 5590 5589 5589 5588 5588 5587 5586 5586 5585 5584 5584 5583 5583 5583 5582 5582 5582 5581 5581 5581 5580 5580 5579 5579
5622 5622 5621 5621 5620 5620 5620 5620 5619 5620 5620 5620 5620 5620 5620 5620 5620 5619 5619 5619 5618 5618 5618 5618 5618 5617 5617 5616 5615 5614 5614 5613 5612 5611 5611 5610 5609 5609 5608 5608 5607 5606 5604 5603 5601 5600 5600 5599 5599 5598 5596 5595 5593 5592 5591 5591 5590 5589 5588 5587 5586 5586 5585 5585 5585 5584 5583 5583 5582 5582 5581 5581 5580 5580 5580 5579 5579 5579 5579 5579 5578 5578 5578 5577 5577 5577 5576